EW6950 Weather Reports


time (UTC)temp
F
wind
direction
speed
knots
gust
knots
rain 1hr
in
rain 24hr
in
rain mn
in
humidity
%
barometer
mb
20260506224233 47 325 1.7 6.1 0.00 0.07 0.00 89 1010.4
20260506223732 47 306 1.7 4.3 0.00 0.07 0.00 89 1010.4
20260506223233 47 313 1.7 4.3 0.00 0.07 0.00 89 1010.4
20260506222732 47 311 1.7 3.5 0.00 0.07 0.00 89 1010.3
20260506222233 47 304 1.7 3.5 0.00 0.07 0.00 89 1010.3
20260506221731 47 315 1.7 3.5 0.00 0.07 0.00 89 1010.2
20260506221234 47 308 1.7 3.5 0.00 0.07 0.00 89 1010.2
20260506220731 47 313 0.9 2.6 0.00 0.07 0.00 89 1010.1
20260506220232 47 307 0.9 2.6 0.00 0.07 0.00 89 1010.0
20260506215731 48 300 0.9 1.7 0.00 0.07 0.07 89 1010.0
20260506215232 48 286 0.9 1.7 0.00 0.07 0.07 89 1010.0
20260506214231 48 281 0.9 1.7 0.00 0.07 0.07 88 1009.9
20260506213731 48 321 0.9 2.6 0.00 0.07 0.07 88 1009.8
20260506213232 48 326 1.7 6.1 0.00 0.07 0.07 88 1009.8
20260506212731 48 309 1.7 6.1 0.00 0.07 0.07 88 1009.7
20260506212231 48 320 1.7 3.5 0.00 0.07 0.07 89 1009.6
20260506211732 48 320 0.9 2.6 0.00 0.07 0.07 89 1009.7
20260506211232 48 301 0.9 1.7 0.00 0.07 0.07 89 1009.6
20260506210731 48 317 0.9 1.7 0.00 0.07 0.07 89 1009.6
20260506210232 48 316 0.0 1.7 0.00 0.07 0.07 89 1009.6
20260506205231 48 316 0.9 1.7 0.00 0.07 0.07 88 1009.5
20260506204231 48 315 0.0 1.7 0.00 0.10 0.07 88 1009.6
20260506203731 48 315 0.9 1.7 0.00 0.10 0.07 88 1009.5
20260506203231 48 315 0.9 1.7 0.00 0.10 0.07 88 1009.4
20260506202731 48 317 1.7 4.3 0.00 0.10 0.07 88 1009.4
20260506202231 48 311 1.7 4.3 0.00 0.10 0.07 87 1009.3
20260506201731 49 266 1.7 3.5 0.00 0.12 0.07 87 1009.4
20260506201231 49 315 1.7 3.5 0.00 0.13 0.07 87 1009.3
20260506200731 49 319 1.7 4.3 0.00 0.14 0.07 87 1009.3
20260506200231 49 261 1.7 4.3 0.00 0.16 0.07 87 1009.2
20260506195730 49 309 1.7 3.5 0.00 0.17 0.07 87 1009.2
20260506194732 49 325 0.9 2.6 0.00 0.21 0.07 87 1009.1
20260506194232 49 331 1.7 3.5 0.00 0.22 0.07 87 1008.9
20260506193731 49 318 1.7 3.5 0.00 0.23 0.07 87 1008.9
20260506193232 49 327 2.6 7.0 0.00 0.24 0.07 87 1008.8
20260506192731 49 324 2.6 7.0 0.00 0.24 0.07 87 1008.6
20260506192233 49 312 2.6 6.1 0.00 0.24 0.07 86 1008.6
20260506191731 49 306 1.7 4.3 0.00 0.24 0.07 87 1008.5
20260506191231 49 319 1.7 6.1 0.00 0.24 0.07 87 1008.5
20260506190734 49 340 1.7 6.1 0.00 0.24 0.07 87 1008.4
20260506190231 49 311 1.7 3.5 0.00 0.25 0.07 87 1008.4
20260506185733 49 315 1.7 4.3 0.00 0.25 0.07 86 1008.3
20260506185231 50 315 1.7 4.3 0.00 0.26 0.07 86 1008.3
20260506184733 50 317 1.7 4.3 0.00 0.26 0.07 86 1008.2
20260506184230 50 315 2.6 4.3 0.00 0.26 0.07 86 1008.2
20260506183733 50 311 1.7 5.2 0.00 0.26 0.07 86 1008.1
20260506183231 50 324 2.6 8.7 0.00 0.27 0.07 86 1008.1
20260506182733 50 319 1.7 8.7 0.00 0.27 0.07 86 1008.1
20260506182231 50 289 1.7 5.2 0.00 0.27 0.07 86 1008.0
20260506181733 51 38 1.7 4.3 0.00 0.28 0.07 86 1007.9
20260506181231 51 288 0.9 3.5 0.00 0.28 0.07 86 1007.8
20260506180733 51 315 1.7 6.1 0.00 0.28 0.07 86 1007.8
20260506175733 51 309 2.6 6.1 0.00 0.28 0.07 86 1007.7
20260506173231 51 247 3.5 10.4 0.00 0.29 0.07 87 1007.6
20260506172733 51 328 3.5 10.4 0.00 0.29 0.07 86 1007.5
20260506172231 51 331 2.6 8.7 0.00 0.29 0.07 87 1007.5
20260506171231 52 323 2.6 7.0 0.00 0.29 0.07 87 1007.4
20260506170733 52 336 2.6 7.0 0.00 0.29 0.07 87 1007.4
20260506170231 52 319 2.6 7.0 0.00 0.29 0.07 87 1007.4
20260506165733 52 350 1.7 7.0 0.00 0.29 0.07 87 1007.4
20260506165231 51 338 2.6 7.0 0.00 0.29 0.07 87 1007.4
20260506164734 51 315 2.6 7.8 0.00 0.29 0.07 87 1007.4
20260506163733 51 309 2.6 6.1 0.00 0.29 0.07 87 1007.4
20260506163231 52 284 2.6 8.7 0.00 0.29 0.07 86 1007.4
20260506162734 52 328 2.6 8.7 0.00 0.29 0.07 86 1007.4
20260506162231 52 318 2.6 7.0 0.00 0.29 0.07 86 1007.3
20260506161231 52 300 2.6 7.8 0.00 0.29 0.07 85 1007.3
20260506160731 52 302 2.6 7.8 0.00 0.30 0.07 85 1007.3
20260506155731 53 316 1.7 5.2 0.00 0.30 0.07 85 1007.2
20260506154732 53 292 2.6 8.7 0.00 0.30 0.07 85 1007.2
20260506154229 53 319 2.6 7.8 0.00 0.31 0.07 86 1007.2
20260506153729 53 322 3.5 8.7 0.00 0.31 0.07 85 1007.1
20260506152712 54 5 2.6 6.1 0.00 0.31 0.07 84 1007.0
20260506152209 54 338 1.7 6.1 0.00 0.31 0.07 85 1006.9
20260506151712 54 276 2.6 7.0 0.00 0.31 0.07 86 1006.9
20260506151209 53 323 3.5 9.6 0.00 0.32 0.07 86 1006.9
20260506150209 54 347 3.5 8.7 0.00 0.32 0.07 84 1006.9
20260506145709 55 319 3.5 8.7 0.00 0.32 0.07 85 1006.7
20260506145208 55 340 3.5 8.7 0.00 0.33 0.07 87 1006.7
20260506144708 55 306 3.5 10.4 0.00 0.33 0.07 88 1006.6
20260506144206 54 309 2.6 10.4 0.00 0.33 0.07 89 1006.6
20260506143206 53 328 2.6 7.8 0.00 0.33 0.07 90 1006.7
20260506142706 52 248 2.6 7.8 0.00 0.34 0.07 90 1006.7
20260506141706 52 316 1.7 4.3 0.00 0.34 0.07 91 1006.9
20260506141206 51 337 2.6 4.3 0.00 0.34 0.07 91 1006.8
20260506140706 51 313 2.6 4.3 0.00 0.34 0.07 91 1006.9
20260506140206 51 355 1.7 4.3 0.00 0.34 0.07 91 1006.9
20260506135704 51 307 1.7 4.3 0.00 0.34 0.07 91 1006.9
20260506134704 52 291 2.6 7.0 0.00 0.35 0.07 91 1006.9
20260506134204 52 328 1.7 6.1 0.00 0.35 0.07 91 1006.9
20260506133707 52 252 1.7 4.3 0.00 0.35 0.07 91 1006.9
20260506133205 52 320 1.7 4.3 0.00 0.35 0.07 91 1006.9
20260506132707 52 323 1.7 3.5 0.00 0.35 0.07 91 1006.9
20260506132202 52 327 1.7 5.2 0.00 0.35 0.07 91 1006.9
20260506131202 51 309 2.6 7.0 0.00 0.36 0.07 91 1006.8
20260506130704 52 256 2.6 7.0 0.00 0.37 0.07 91 1006.7
20260506130201 52 304 2.6 6.1 0.00 0.38 0.07 91 1006.7
20260506125703 52 328 2.6 7.8 0.00 0.39 0.07 91 1006.7
20260506125202 52 318 1.7 7.8 0.00 0.39 0.07 91 1006.6
20260506124704 52 314 1.7 5.2 0.00 0.39 0.07 91 1006.6
20260506124202 52 355 2.6 6.1 0.00 0.39 0.07 91 1006.5
20260506123702 52 309 2.6 6.1 0.00 0.40 0.07 91 1006.5
20260506123201 52 318 2.6 7.0 0.00 0.40 0.07 91 1006.4
20260506122702 52 321 3.5 7.8 0.00 0.40 0.07 90 1006.4
20260506122203 52 340 2.6 7.8 0.00 0.41 0.07 90 1006.3
20260506121201 53 273 1.7 6.1 0.00 0.43 0.07 90 1006.3
20260506120702 52 329 2.6 6.1 0.00 0.44 0.07 90 1006.2
20260506120202 52 351 2.6 6.1 0.00 0.44 0.07 90 1006.2
20260506115702 53 315 2.6 7.0 0.00 0.44 0.07 90 1006.2
20260506115202 53 311 1.7 7.0 0.00 0.44 0.07 90 1006.1
20260506114702 53 286 1.7 4.3 0.00 0.44 0.07 90 1006.1
20260506113702 53 323 1.7 6.1 0.00 0.44 0.07 90 1006.0
20260506113202 53 296 2.6 7.0 0.00 0.44 0.07 90 1006.0
20260506112702 53 286 2.6 7.0 0.00 0.44 0.07 90 1005.9
20260506111702 53 308 1.7 5.2 0.00 0.44 0.07 91 1005.9
20260506111201 53 355 1.7 5.2 0.00 0.44 0.07 91 1005.8
20260506110702 53 333 2.6 6.1 0.00 0.44 0.07 91 1005.8
20260506105702 53 342 2.6 7.0 0.00 0.44 0.07 92 1005.8
20260506105202 52 324 1.7 6.1 0.00 0.44 0.07 92 1005.7
20260506104702 52 335 1.7 6.1 0.00 0.44 0.07 92 1005.7
20260506104202 52 296 2.6 7.0 0.00 0.44 0.07 92 1005.7
20260506103702 52 321 2.6 7.0 0.00 0.44 0.07 92 1005.7
20260506102202 52 321 2.6 5.2 0.00 0.44 0.07 92 1005.6
20260506101702 52 324 1.7 5.2 0.00 0.44 0.07 93 1005.5
20260506101202 52 313 1.7 5.2 0.00 0.44 0.07 93 1005.5
20260506100702 52 325 1.7 6.1 0.00 0.44 0.07 93 1005.5
20260506100202 52 314 2.6 7.0 0.00 0.44 0.07 93 1005.5
20260506095702 52 274 2.6 7.0 0.00 0.44 0.07 93 1005.3
20260506095202 52 325 1.7 6.1 0.00 0.44 0.07 93 1005.3
20260506094702 52 306 1.7 6.1 0.00 0.44 0.07 93 1005.5
20260506094202 52 355 1.7 5.2 0.00 0.44 0.07 93 1005.3
20260506093702 52 320 1.7 6.1 0.00 0.44 0.07 93 1005.2
20260506093202 52 325 2.6 6.1 0.00 0.44 0.07 93 1005.2
20260506092702 52 254 1.7 6.1 0.00 0.44 0.07 93 1005.1
20260506091204 52 279 2.6 6.1 0.00 0.44 0.07 93 1005.1
20260506090702 51 279 2.6 7.0 0.00 0.44 0.07 93 1005.1
20260506090204 51 313 1.7 7.0 0.00 0.44 0.07 93 1005.1
20260506085703 52 277 1.7 5.2 0.00 0.44 0.07 93 1005.0
20260506085205 52 238 1.7 6.1 0.00 0.44 0.07 93 1004.9
20260506084701 52 319 2.6 6.1 0.00 0.44 0.07 93 1004.9
20260506083703 52 323 1.7 6.1 0.00 0.44 0.07 93 1004.7
20260506083204 52 38 1.7 7.0 0.00 0.44 0.07 93 1004.7
20260506082700 52 315 1.7 7.0 0.00 0.44 0.07 93 1004.6
20260506082200 52 231 1.7 4.3 0.00 0.44 0.07 93 1004.7
20260506081658 52 296 2.6 4.3 0.01 0.44 0.07 93 1004.6
20260506081157 52 314 1.7 4.3 0.01 0.44 0.07 93 1004.6
20260506080156 52 319 1.7 6.1 0.01 0.44 0.07 93 1004.6
20260506072653 51 307 1.7 4.3 0.02 0.44 0.07 93 1004.6
20260506072153 51 314 1.7 4.3 0.02 0.44 0.07 93 1004.6
20260506071654 51 312 0.9 4.3 0.02 0.43 0.06 93 1004.6
20260506071157 51 311 1.7 3.5 0.02 0.43 0.06 93 1004.5
20260506070654 51 298 1.7 3.5 0.02 0.43 0.06 94 1004.5
20260506070154 51 331 1.7 4.3 0.02 0.43 0.06 93 1004.5
20260506062148 51 306 1.7 3.5 0.04 0.42 0.05 93 1004.2
20260506061648 51 306 1.7 5.2 0.04 0.42 0.05 93 1004.1
20260506061148 51 325 1.7 5.2 0.03 0.41 0.04 93 1004.1
20260506060648 51 323 0.9 4.3 0.04 0.41 0.04 93 1004.1
20260506050140 52 219 0.0 0.0 0.00 0.37 0.00 93 1003.8
20260506045130 52 219 0.0 0.9 0.00 0.37 0.00 93 1003.8
20260506044131 52 219 0.0 1.7 0.00 0.37 0.00 93 1003.8
20260506043631 52 182 0.0 0.0 0.00 0.37 0.00 93 1003.9
20260506043131 52 182 0.0 0.0 0.00 0.37 0.00 93 1003.8
20260506042631 52 182 0.0 0.0 0.00 0.37 0.00 93 1003.9
20260506042131 52 182 0.0 0.9 0.00 0.37 0.00 93 1003.9
20260506041631 52 182 0.0 1.7 0.00 0.37 0.00 93 1003.9
20260506040631 52 182 0.0 1.7 0.00 0.37 0.00 93 1004.0
20260506040131 52 183 0.9 1.7 0.00 0.37 0.00 93 1004.0
20260506035630 52 183 0.9 1.7 0.00 0.37 0.00 93 1004.0
20260506035131 52 183 0.9 3.5 0.00 0.37 0.00 93 1004.1
20260506034633 52 184 0.9 3.5 0.00 0.37 0.00 93 1004.2
20260506034131 52 176 0.9 2.6 0.00 0.37 0.00 93 1004.2
20260506033634 52 178 0.9 3.5 0.00 0.37 0.00 93 1004.2
20260506033131 52 162 0.9 3.5 0.00 0.37 0.00 93 1004.3
20260506032131 52 181 1.7 5.2 0.00 0.37 0.00 93 1004.2
20260506031634 52 194 1.7 4.3 0.00 0.37 0.00 93 1004.3
20260506031131 52 148 1.7 4.3 0.00 0.37 0.00 93 1004.3
20260506030131 52 171 1.7 4.3 0.00 0.37 0.00 93 1004.3
20260506025631 52 163 1.7 4.3 0.00 0.37 0.00 93 1004.3
20260506024632 52 158 1.7 6.1 0.00 0.37 0.00 93 1004.3
20260506024131 52 192 1.7 4.3 0.00 0.37 0.00 93 1004.3
20260506023633 52 171 1.7 4.3 0.00 0.37 0.00 93 1004.3
20260506023131 52 155 0.9 3.5 0.00 0.37 0.00 93 1004.3
20260506022632 52 189 0.9 3.5 0.00 0.37 0.00 93 1004.3
20260506022128 52 184 1.7 3.5 0.00 0.37 0.00 93 1004.3
20260506021117 52 186 1.7 5.2 0.00 0.37 0.00 93 1004.3
20260506020613 52 171 1.7 5.2 0.00 0.37 0.00 93 1004.3
20260506020107 52 179 1.7 4.3 0.00 0.37 0.00 93 1004.3
20260506015608 52 193 1.7 4.3 0.00 0.37 0.00 93 1004.4
20260506015107 52 178 1.7 5.2 0.00 0.37 0.00 93 1004.4
20260506014607 52 202 1.7 5.2 0.00 0.37 0.00 93 1004.5
20260506014107 52 167 2.6 7.0 0.00 0.37 0.00 93 1004.5
20260506013605 52 137 2.6 7.0 0.00 0.37 0.00 93 1004.6
20260506013105 52 192 2.6 7.0 0.00 0.37 0.00 93 1004.6
20260506012605 52 167 2.6 7.0 0.00 0.37 0.00 93 1004.6
20260506012104 52 173 2.6 5.2 0.00 0.37 0.00 93 1004.6
20260506011608 52 196 2.6 6.1 0.00 0.37 0.00 93 1004.6
20260506011105 53 172 2.6 6.1 0.00 0.37 0.00 93 1004.6
20260506010607 53 186 1.7 5.2 0.00 0.37 0.00 93 1004.7
20260506010104 53 167 1.7 5.2 0.00 0.37 0.00 93 1004.7
20260506005607 53 171 1.7 5.2 0.00 0.37 0.00 93 1004.7
20260506005102 53 157 1.7 4.3 0.00 0.37 0.00 93 1004.8
20260506004604 53 196 1.7 5.2 0.00 0.37 0.00 93 1004.7
20260506004102 53 171 1.7 5.2 0.00 0.37 0.00 93 1004.8
20260506003600 53 182 1.7 5.2 0.00 0.37 0.00 93 1004.9
20260506003055 53 175 1.7 7.8 0.00 0.37 0.00 93 1004.9
20260506002548 53 170 1.7 7.8 0.00 0.37 0.00 93 1004.9
20260506002049 53 187 2.6 7.8 0.00 0.37 0.00 93 1004.8
20260506001047 53 242 1.7 5.2 0.00 0.37 0.00 93 1005.0
20260506000047 53 171 2.6 6.1 0.00 0.37 0.00 93 1005.0
20260505235546 53 202 1.7 6.1 0.00 0.37 0.00 93 1005.1
20260505235047 53 163 1.7 5.2 0.00 0.37 0.00 93 1005.1
20260505234548 53 178 1.7 4.3 0.00 0.37 0.00 93 1005.2
20260505234046 53 186 1.7 3.5 0.00 0.37 0.00 93 1005.2
20260505233047 54 183 0.9 4.3 0.00 0.37 0.00 93 1005.3
20260505232547 54 163 0.9 4.3 0.00 0.37 0.00 93 1005.2
20260505232048 54 163 0.9 4.3 0.00 0.37 0.00 93 1005.3
20260505231547 54 153 0.9 4.3 0.00 0.37 0.00 93 1005.2
20260505231047 54 165 0.9 3.5 0.00 0.37 0.00 93 1005.3
20260505230546 54 168 0.9 3.5 0.00 0.37 0.00 93 1005.3
20260505230046 54 131 0.0 2.6 0.00 0.37 0.00 93 1005.3
20260505225045 54 100 0.0 1.7 0.00 0.37 0.00 93 1005.5
20260505224544 53 100 0.0 1.7 0.00 0.37 0.00 93 1005.5